Location: Holbach
(51.5399°N, 10.6036°E)
Time: 07:47:36
(UTC+00:00)

Cosmos 1092 Rocket - Pass Details

Date: 20 June 2021
Orbit: 955 x 994 km, 82.9° (Epoch: 28 July)

Event Time Altitude Azimuth Distance (km) Brightness Sun altitude
Exits shadow 01:11:06 13° 189° (S) 2,480 5.5 -11.1°
Maximum altitude 01:16:42 88° 277° (W) 964 4.0 -10.7°
Drops below altitude 10° 01:22:54 10° 10° (N) 2,703 7.6 -10.3°
Sets 01:25:25 0° 11° (N) 3,657 8.6 -10.1°
